Weather History for Tampa, FL

Change the Weather History Date:

Monday, May 12, 2014

  Actual Average Record
Temperature  
Mean Temperature 81 °F 78 °F  
Max Temperature 89 °F 87 °F 94 °F (2002)
Min Temperature 73 °F 69 °F 55 °F (1989)
Degree Days  
Heating Degree Days 0 0  
Month to date heating degree days 0 0  
Since 1 July heating degree days 444 538  
Cooling Degree Days 16 13  
Month to date cooling degree days 151 139  
Year to date cooling degree days 568 599  
Growing Degree Days 31 (Base 50)    
Moisture  
Dew Point 64 °F    
Average Humidity 60    
Maximum Humidity 79    
Minimum Humidity 40    
Precipitation  
Precipitation 0.00 in 0.05 in 1.44 in (1951)
Month to date precipitation 3.49 0.63  
Year to date precipitation 14.28 10.73  
Sea Level Pressure  
Sea Level Pressure 30.11 in    
Wind  
Wind Speed 8 mph (East)    
Max Wind Speed 14 mph    
Max Gust Speed 21 mph    
Visibility 10 miles    
Events      
T = Trace of Precipitation, MM = Missing Value Source: NWS Daily Summary

Daily Weather History Graph

Daily Weather History Graph

Search for Another Location

Airport:

Trip Planner

Search our weather history database for the weather conditions in past years. The results will help you decide how hot, cold, wet, or windy it might be!

Date:

Astronomy

May. 12, 2014 Rise Set
Actual Time 6:42 AM EDT 8:11 PM EDT
Civil Twilight 6:16 AM EDT 8:36 PM EDT
Nautical Twilight 5:46 AM EDT 9:06 PM EDT
Astronomical Twilight 5:15 AM EDT 9:38 PM EDT
Moon 6:17 PM EDT (5/12) 5:07 AM EDT (5/12)
Length of Visible Light 14h 19m
Length of Day
13h 28m
Waxing Gibbous, 95% of the Moon is Illuminated
May 12
Waxing Gibbous
May 14
Full
May 21
Last Quarter
May 28
New
Jun 5
First Quarter

Hourly Weather History & Observations

Time (EDT) Temp. Heat Index Dew Point Humidity Pressure Visibility Wind Dir Wind Speed Gust Speed Precip Events Conditions
12:53 AM 77.0 °F - 64.9 °F 66% 30.11 in 10.0 mi ESE 8.1 mph - N/A   Overcast
1:53 AM 75.9 °F - 64.9 °F 69% 30.10 in 10.0 mi ESE 6.9 mph - N/A   Overcast
2:53 AM 75.0 °F - 64.9 °F 71% 30.09 in 10.0 mi ESE 5.8 mph - N/A   Overcast
3:53 AM 73.9 °F - 64.9 °F 73% 30.09 in 10.0 mi ESE 4.6 mph - N/A   Mostly Cloudy
4:53 AM 73.9 °F - 64.9 °F 73% 30.09 in 10.0 mi East 3.5 mph - N/A   Mostly Cloudy
5:53 AM 73.0 °F - 64.9 °F 76% 30.09 in 10.0 mi ESE 4.6 mph - N/A   Scattered Clouds
6:53 AM 73.0 °F - 66.0 °F 79% 30.11 in 10.0 mi Variable 3.5 mph - N/A   Scattered Clouds
7:53 AM 73.9 °F - 66.0 °F 76% 30.13 in 10.0 mi East 4.6 mph - N/A   Mostly Cloudy
8:53 AM 77.0 °F - 66.9 °F 71% 30.14 in 10.0 mi ESE 9.2 mph - N/A   Mostly Cloudy
9:53 AM 78.8 °F - 66.2 °F 65% 30.15 in 10.0 mi ESE 8.1 mph - N/A   Mostly Cloudy
10:53 AM 81.0 °F 83.0 °F 66.0 °F 60% 30.16 in 10.0 mi East 8.1 mph - N/A   Mostly Cloudy
11:53 AM 82.9 °F 84.6 °F 64.9 °F 54% 30.15 in 10.0 mi East 8.1 mph - N/A   Mostly Cloudy
12:53 PM 86.0 °F 87.3 °F 64.0 °F 48% 30.14 in 10.0 mi ENE 10.4 mph 17.3 mph N/A   Mostly Cloudy
1:53 PM 86.0 °F 87.3 °F 64.0 °F 48% 30.12 in 10.0 mi Variable 6.9 mph - N/A   Mostly Cloudy
2:53 PM 87.1 °F 87.8 °F 63.0 °F 44% 30.12 in 10.0 mi Variable 6.9 mph - N/A   Overcast
3:53 PM 88.0 °F 88.4 °F 62.1 °F 42% 30.10 in 10.0 mi NE 11.5 mph - N/A   Overcast
4:53 PM 88.0 °F 87.9 °F 61.0 °F 40% 30.07 in 10.0 mi ENE 8.1 mph - N/A   Mostly Cloudy
5:53 PM 87.1 °F 87.8 °F 63.0 °F 44% 30.06 in 10.0 mi ENE 10.4 mph 19.6 mph N/A   Mostly Cloudy
6:53 PM 86.0 °F 86.8 °F 63.0 °F 46% 30.06 in 10.0 mi ENE 10.4 mph - N/A   Scattered Clouds
7:53 PM 84.0 °F 84.9 °F 63.0 °F 49% 30.07 in 10.0 mi ENE 10.4 mph - N/A   Scattered Clouds
8:53 PM 82.0 °F 83.4 °F 64.0 °F 54% 30.08 in 10.0 mi East 6.9 mph - N/A   Partly Cloudy
9:53 PM 80.1 °F 81.5 °F 63.0 °F 56% 30.10 in 10.0 mi Variable 6.9 mph - N/A   Partly Cloudy
10:53 PM 78.1 °F - 64.0 °F 62% 30.10 in 10.0 mi East 10.4 mph 19.6 mph N/A   Clear
11:53 PM 77.0 °F - 66.0 °F 69% 30.09 in 10.0 mi Variable 6.9 mph - N/A   Clear